SL-16 DEB, 39847

Orbit data source: Space-Track

SL-16 DEB, 39847 is space debris in LEO originally from a launch on Fri, 25 Dec 1992 UTC launched from the Tyuratam Missile And Space Complex (TTMTR). Debris objects in space refer to the collection of defunct objects orbiting the Earth. Examples of debris include non-operational satellites, rocket bodies, and fragments generated from explosions, collisions, or faulty payload assembly.

Loading next visibility...
Identifier
39847, 1992-093KZ
Orbit
LEO
Country
Flag of CISCIS
Related business
Manufacturer
Unknown
Mission
Spacecraft
Bus & Motor
Unknown
Mass
Unknown
Launch date (UTC)
1992-12-25 (33 years ago)
Launch vehicle
Unknown
Launch site
Tyuratam Missile And Space Complex (TTMTR)
Object type
Payload
Rocket body
Debris
Shape & HBR
Unknown shape, 0.1 m
Radar Cross Section
Small (<0.1 m²)

Expand to show TLE details & history
Last TLE update: 3 weeks ago

TLE from 3 weeks ago
0 SL-16 DEB
1 39847U 92093KZ  25286.10788392  .00001742  00000-0  53957-3 0  9991
2 39847  71.0292 219.6751 0053281  75.9953 284.7100 14.41753344596011
Epoch: 2025-10-13T02:35Z
TLE epoch observation values (Epoch: 2025-10-13T02:35:21.170Z)
Latitude
-0.00002°
Longitude
158.92148°
Altitude
745.684 km
Speed
7.487 km/s
True Right ascension
14h 38m 42s
True Declination
0° 00' 00"
Sunlit
Object was in daylight at epoch
Visualization orbit readout
Latitude
Unknown
Longitude
Unknown
Altitude
Unknown
Speed
Unknown
Apparent Right ascension
Unknown
Apparent Declination
Unknown
Sunlit
N/A
Visualization observer readout
Local Sidereal Time
06:19:51
Azimuth
Unknown
Elevation
Unknown
Doppler factor
Unknown
Orbital elements
Apogee altitude
788.59 km
Perigee altitude
712.624 km
Semi-major axis
7,128.744 km
Eccentricity
0.00533
Inclination
71.0292°
RAAN
219.6751°
Arg. of periapsis
75.9953°
True anomaly
284.11847°
Mean anomaly
284.71°
Eccentric anomaly
284.41433°
Mean motion
3.60598 °/min
Orbital period
99.83 mins
BSTAR
0.00053957
Loading maneuver chart data...
Computing Atmospheric mass density...

Documentation

Showing up to 5 results
|